[[{"header":{"parameterUnit":"m.s-1","parameterCategory":1,"la1":30.2991,"la2":30.254,"lo1":-89.0895,"lo2":-89.0444,"dy":0.0017,"dx":0.0017,"nx":28,"ny":28,"refTime":"2024-09-26T03:00:00:Z","depth":0,"parameterNumber":2,"parameterNumberName":"U-component_of_WINDS"},"data":[0,0,0,0,0,0,0,0,0,0,0,0,0,0,0,0,0,0,0,0,0,0,0,0,0,0,0,0,0,0,0,0,0,0,0,0,0,0,0,0,0,0,0,0,0,0,0,0,0,0,0,0,0,0,0,0,0,0,-1.7714,-1.7714,0,-1.7709,-1.7709,-1.7709,-1.7673,-1.7672,-1.7671,-1.7671,-1.7666,-1.7666,-1.7667,0,0,0,0,0,0,0,0,0,0,0,0,0,-1.7692,-1.7693,-1.7714,-1.7714,-1.7714,-1.7709,-1.7709,-1.7709,-1.7673,-1.7672,-1.7671,-1.767,-1.7665,-1.7666,-1.7667,0,0,0,0,0,0,0,0,0,0,0,0,0,-1.7696,-1.7693,-1.7714,-1.7695,-1.7694,-1.7709,-1.7709,-1.7709,-1.7674,-1.7672,-1.7671,-1.767,-1.7665,-1.7666,-1.7667,-1.7699,0,0,-1.767,-1.7671,0,0,0,0,0,0,0,0,-1.7696,-1.7697,-1.7698,-1.7697,-1.7695,-1.769,-1.7699,-1.7705,-1.7674,-1.7681,-1.7671,-1.7669,-1.7675,-1.7675,-1.7677,-1.7699,-1.7699,-1.767,-1.7671,-1.7671,-1.7672,0,0,0,0,0,0,0,-1.7695,-1.7697,-1.7712,-1.7698,-1.7696,-1.7687,-1.7686,-1.77,-1.7685,-1.7681,-1.7678,-1.7678,-1.7674,-1.7676,-1.7677,-1.7699,-1.767,-1.7671,-1.7672,-1.7672,-1.7746,-1.7747,0,0,0,0,0,0,-1.7698,-1.7697,-1.7712,-1.7712,-1.7692,-1.7689,-1.7688,-1.7693,-1.7685,-1.7683,-1.7679,-1.7676,-1.7675,-1.7675,-1.7676,-1.7713,-1.7671,-1.7672,-1.7673,-1.7745,-1.7746,-1.7748,0,0,0,0,0,0,-1.7697,-1.7699,-1.7712,-1.7703,-1.7704,-1.769,-1.7697,-1.7694,-1.7696,-1.7684,-1.7681,-1.7684,-1.7674,-1.7675,-1.7694,-1.7712,-1.7673,-1.7674,-1.7743,-1.7745,-1.7747,-1.7787,0,0,0,0,0,0,-1.7697,-1.77,-1.7712,-1.7704,-1.7705,-1.773,-1.7698,-1.7694,-1.7698,-1.7694,-1.7688,-1.7686,-1.7673,-1.7692,-1.7695,-1.7713,-1.7674,-1.7741,-1.7744,-1.7746,-1.7784,-1.779,-1.7795,0,0,0,0,0,-1.7696,-1.7724,-1.7713,-1.7715,-1.772,-1.7731,-1.7732,-1.7716,-1.7699,-1.7711,-1.7704,-1.7686,-1.771,-1.7695,-1.7697,-1.7716,-1.774,-1.7743,-1.7746,-1.7781,-1.7789,-1.7795,0,0,0,0,0,0,-1.7734,-1.7722,-1.771,-1.7736,-1.7735,-1.7725,-1.774,-1.7725,-1.7729,-1.7725,-1.7706,-1.7705,-1.7727,-1.7723,-1.7706,-1.7746,-1.7722,-1.7726,-1.7748,-1.7755,-1.776,-1.7761,-1.7675,0,0,0,0,0,-1.7746,-1.7756,-1.7744,-1.7768,-1.7768,-1.7754,-1.7758,-1.7747,-1.7745,-1.7744,-1.7738,-1.7737,-1.7744,-1.7749,-1.7755,-1.7783,-1.7781,-1.7797,-1.7802,-1.7807,-1.7811,-1.7824,-1.7831,-1.7758,-1.7758,-1.7758,0,0,-1.7769,-1.7764,-1.7771,-1.7775,-1.7773,-1.7784,-1.7754,-1.7767,-1.7774,-1.7746,-1.7763,-1.7759,-1.7756,-1.7779,-1.7789,-1.7777,-1.783,-1.7811,-1.7815,-1.7816,-1.7828,-1.7835,-1.7841,-1.776,-1.776,-1.7759,0,0,-1.7818,-1.7815,-1.7834,-1.7832,-1.7829,-1.7819,-1.7824,-1.7816,-1.7812,-1.7829,-1.7808,-1.7816,-1.7829,-1.7828,-1.7829,-1.7875,-1.7859,-1.7878,-1.7908,-1.7921,-1.7927,-1.7932,-1.7948,-1.7955,-1.7881,-1.7881,-1.7882,0,-1.7848,-1.7863,-1.7845,-1.7859,-1.7861,-1.7836,-1.7854,-1.7853,-1.7853,-1.7855,-1.7841,-1.7856,-1.7852,-1.7874,-1.7886,-1.7888,-1.7892,-1.7879,-1.7928,-1.7933,-1.7937,-1.7952,-1.7958,-1.7884,-1.7883,-1.7883,-1.7883,0,-1.7899,-1.791,-1.7925,-1.7924,-1.7928,-1.7945,-1.7929,-1.7935,-1.7923,-1.7915,-1.7932,-1.7926,-1.793,-1.7935,-1.7923,-1.7955,-1.7948,-1.7931,-1.7907,-1.7947,-1.7961,-1.7966,-1.7887,-1.7886,-1.7885,-1.7885,0,0,-1.7972,-1.7961,-1.7967,-1.7966,-1.796,-1.7968,-1.7982,-1.7986,-1.7991,-1.7991,-1.8003,-1.8014,-1.7998,-1.7999,-1.7987,-1.7999,-1.8035,-1.7981,-1.798,-1.7991,-1.807,-1.8082,-1.8089,-1.8024,-1.8025,-1.8026,-1.807,0,-1.8018,-1.8042,-1.8027,-1.8053,-1.8063,-1.8038,-1.8051,-1.8048,-1.8041,-1.8047,-1.8039,-1.8047,-1.8026,-1.8026,-1.8037,-1.8029,-1.8051,-1.8025,-1.8035,-1.8035,-1.8036,-1.8097,-1.811,-1.8151,-1.8075,-1.8076,-1.8077,0,-1.8075,-1.8077,-1.8105,-1.8096,-1.8099,-1.8111,-1.8113,-1.8119,-1.8116,-1.8109,-1.811,-1.8095,-1.8108,-1.8084,-1.8102,-1.8085,-1.8087,-1.8084,-1.8085,-1.8085,-1.8059,-1.8098,-1.8164,-1.817,-1.8085,-1.8085,-1.8084,0,-1.8125,-1.8135,-1.8152,-1.8152,-1.8142,-1.8151,-1.8148,-1.8143,-1.8146,-1.8147,-1.8148,-1.8152,-1.8153,-1.8156,-1.8141,-1.8125,-1.8161,-1.8136,-1.8156,-1.8156,-1.8164,-1.8164,-1.8232,-1.8167,-1.8167,-1.8166,-1.8166,0,-1.8178,-1.8196,-1.8174,-1.8185,-1.8204,-1.8185,-1.8204,-1.8198,-1.8194,-1.8203,-1.8182,-1.8191,-1.8171,-1.8178,-1.8166,-1.8183,-1.8184,-1.8179,-1.8175,-1.818,-1.8181,-1.8182,-1.8179,-1.8168,-1.8168,-1.8167,-1.8167,0,-1.8237,-1.8223,-1.8241,-1.823,-1.8228,-1.8242,-1.8233,-1.8242,-1.8233,-1.8244,-1.8246,-1.8231,-1.8238,-1.8223,-1.8228,-1.822,-1.8243,-1.8236,-1.8244,-1.8242,-1.8263,-1.8261,-1.8333,-1.8341,-1.8272,-1.8272,-1.8273,0,-1.8272,-1.8285,-1.8275,-1.8279,-1.8277,-1.8284,-1.8287,-1.8269,-1.8272,-1.8269,-1.8278,-1.8283,-1.8286,-1.8298,-1.8287,-1.8291,-1.8283,-1.8308,-1.8283,-1.8288,-1.8283,-1.8282,-1.8283,-1.8313,-1.8314,-1.8315,-1.8315,0,-1.8335,-1.8327,-1.8331,-1.8333,-1.8337,-1.8337,-1.8337,-1.8341,-1.8322,-1.8327,-1.8333,-1.8335,-1.834,-1.8345,-1.8346,-1.8342,-1.8325,-1.8323,-1.8328,-1.8333,-1.8337,-1.8335,-1.8258,-1.8321,-1.8321,-1.832,-1.832,-1.832,-1.8383,-1.8392,-1.8387,-1.8392,-1.8389,-1.8389,-1.8397,-1.8388,-1.8393,-1.8395,-1.8384,-1.8392,-1.8388,-1.8387,-1.8385,-1.8391,-1.838,-1.8387,-1.8389,-1.839,-1.8394,-1.8336,-1.8391,-1.8391,-1.8391,-1.8391,-1.8391,0,-1.8444,-1.8439,-1.8444,-1.8443,-1.8447,-1.843,-1.8428,-1.8433,-1.8441,-1.8437,-1.844,-1.8447,-1.8452,-1.8441,-1.8444,-1.8451,-1.8444,-1.8452,-1.8452,-1.8451,-1.8404,-1.8399,-1.8458,-1.8458,-1.8458,-1.8458,-1.8458,-1.8458,-1.8476,-1.8492,-1.8483,-1.8497,-1.8492,-1.85,-1.85,-1.8499,-1.8496,-1.8505,-1.8508,-1.8501,-1.8495,-1.8497,-1.85,-1.8497,-1.8499,-1.851,-1.8505,-1.8461,-1.8454,-1.8448,-1.8443,-1.8511,-1.8511,-1.8551,-1.8551,-1.8552]},{"header":{"parameterUnit":"m.s-1","parameterCategory":1,"la1":30.2991,"la2":30.254,"lo1":-89.0895,"lo2":-89.0444,"dy":0.0017,"dx":0.0017,"nx":28,"ny":28,"refTime":"2024-09-26T03:00:00:Z","depth":0,"parameterNumber":3,"parameterNumberName":"V-component_of_WINDS"},"data":[0,0,0,0,0,0,0,0,0,0,0,0,0,0,0,0,0,0,0,0,0,0,0,0,0,0,0,0,0,0,0,0,0,0,0,0,0,0,0,0,0,0,0,0,0,0,0,0,0,0,0,0,0,0,0,0,0,0,-8.2817,-8.2818,0,-8.2932,-8.2933,-8.2934,-8.2861,-8.2857,-8.2854,-8.2851,-8.2963,-8.2969,-8.2975,0,0,0,0,0,0,0,0,0,0,0,0,0,-8.2531,-8.2537,-8.2817,-8.2818,-8.282,-8.2931,-8.2933,-8.2935,-8.2861,-8.2857,-8.2853,-8.2849,-8.2961,-8.2968,-8.2975,0,0,0,0,0,0,0,0,0,0,0,0,0,-8.2651,-8.2539,-8.2816,-8.2797,-8.2796,-8.2931,-8.2933,-8.2935,-8.2862,-8.2857,-8.2852,-8.2847,-8.2958,-8.2967,-8.2976,-8.3136,0,0,-8.3005,-8.3009,0,0,0,0,0,0,0,0,-8.2645,-8.2662,-8.2798,-8.2798,-8.2798,-8.2877,-8.2873,-8.3002,-8.2863,-8.2837,-8.285,-8.2845,-8.2938,-8.2948,-8.2981,-8.3141,-8.3146,-8.3005,-8.3011,-8.3015,-8.3018,0,0,0,0,0,0,0,-8.2636,-8.2657,-8.2862,-8.28,-8.28,-8.2781,-8.2793,-8.2897,-8.2914,-8.2839,-8.2834,-8.2849,-8.2937,-8.2972,-8.2983,-8.3147,-8.3005,-8.3013,-8.3019,-8.3023,-8.3448,-8.3453,0,0,0,0,0,0,-8.263,-8.265,-8.2858,-8.2865,-8.2707,-8.279,-8.2803,-8.2856,-8.2913,-8.2917,-8.2853,-8.2845,-8.2959,-8.2972,-8.2987,-8.318,-8.3015,-8.3024,-8.3029,-8.3442,-8.3449,-8.3455,0,0,0,0,0,0,-8.2624,-8.265,-8.2854,-8.2757,-8.2781,-8.2801,-8.2861,-8.2861,-8.2897,-8.2924,-8.2926,-8.2886,-8.2956,-8.2974,-8.3101,-8.3183,-8.3028,-8.3036,-8.3435,-8.3444,-8.3452,-8.3566,0,0,0,0,0,0,-8.2617,-8.2648,-8.2709,-8.2759,-8.2787,-8.2967,-8.2866,-8.2867,-8.2914,-8.2904,-8.2956,-8.2959,-8.2953,-8.3087,-8.311,-8.3193,-8.3043,-8.3428,-8.3439,-8.345,-8.3555,-8.3577,-8.3597,0,0,0,0,0,-8.2607,-8.2734,-8.2712,-8.2738,-8.2864,-8.2971,-8.2987,-8.2979,-8.2921,-8.2982,-8.3,-8.2958,-8.317,-8.3101,-8.3126,-8.3212,-8.3423,-8.3436,-8.3449,-8.3546,-8.3573,-8.3596,0,0,0,0,0,0,-8.269,-8.274,-8.2716,-8.2864,-8.2915,-8.2959,-8.3036,-8.3007,-8.3074,-8.3062,-8.3047,-8.3059,-8.3193,-8.3215,-8.3137,-8.3372,-8.3287,-8.3306,-8.3352,-8.3379,-8.3399,-8.3391,-8.3051,0,0,0,0,0,-8.2727,-8.2812,-8.2849,-8.2976,-8.3003,-8.3016,-8.3062,-8.3052,-8.3103,-8.3123,-8.315,-8.3199,-8.3278,-8.3329,-8.3402,-8.3558,-8.3569,-8.363,-8.3651,-8.3668,-8.3684,-8.3771,-8.38,-8.3498,-8.3498,-8.3498,0,0,-8.2801,-8.2839,-8.2892,-8.2994,-8.3032,-8.312,-8.3034,-8.3129,-8.3194,-8.3136,-8.3259,-8.3281,-8.3336,-8.3479,-8.3543,-8.3502,-8.377,-8.3684,-8.3698,-8.3705,-8.3788,-8.3816,-8.3842,-8.3507,-8.3505,-8.3504,0,0,-8.2982,-8.3019,-8.313,-8.3171,-8.3231,-8.3239,-8.3266,-8.3316,-8.333,-8.3453,-8.3413,-8.349,-8.3624,-8.3666,-8.3704,-8.3907,-8.3871,-8.3931,-8.404,-8.4125,-8.4149,-8.417,-8.4244,-8.4271,-8.3947,-8.3947,-8.3947,0,-8.3067,-8.3199,-8.319,-8.3291,-8.3338,-8.3293,-8.3406,-8.3445,-8.3525,-8.3558,-8.3511,-8.3682,-8.3715,-8.3869,-8.3919,-8.3951,-8.3982,-8.3925,-8.4146,-8.4167,-8.4187,-8.4258,-8.4285,-8.3954,-8.3953,-8.3953,-8.3952,0,-8.3302,-8.3394,-8.3477,-8.3559,-8.3615,-8.3721,-8.3729,-8.3786,-8.3772,-8.3786,-8.3913,-8.3952,-8.4035,-8.407,-8.4055,-8.4223,-8.4196,-8.4148,-8.4063,-8.4223,-8.4289,-8.4316,-8.3964,-8.3962,-8.396,-8.3958,0,0,-8.3536,-8.3616,-8.3647,-8.3686,-8.375,-8.3821,-8.3926,-8.4009,-8.406,-8.4117,-8.4206,-8.4323,-8.428,-8.4324,-8.4314,-8.4389,-8.4551,-8.4332,-8.4333,-8.4373,-8.4741,-8.4778,-8.481,-8.4528,-8.4533,-8.4537,-8.4737,0,-8.3723,-8.3909,-8.3907,-8.4078,-8.4165,-8.4126,-8.4218,-8.4267,-8.4284,-8.4359,-8.4375,-8.446,-8.4396,-8.4423,-8.4496,-8.4516,-8.4625,-8.4501,-8.461,-8.4614,-8.4599,-8.4844,-8.4882,-8.5069,-8.4763,-8.4767,-8.477,0,-8.3965,-8.4036,-8.4217,-8.4274,-8.431,-8.4393,-8.4471,-8.4543,-8.4599,-8.4606,-8.4658,-8.4638,-8.4745,-8.4657,-8.4805,-8.4722,-8.4766,-8.4783,-8.479,-8.4801,-8.4702,-8.4862,-8.5128,-8.5157,-8.4811,-8.4808,-8.4805,0,-8.4122,-8.4261,-8.4389,-8.4423,-8.449,-8.455,-8.4581,-8.4632,-8.4684,-8.4751,-8.4785,-8.4863,-8.4907,-8.4968,-8.4969,-8.4905,-8.512,-8.5031,-8.5129,-8.5129,-8.5176,-8.5173,-8.5455,-8.5203,-8.5202,-8.5202,-8.5201,0,-8.4332,-8.4445,-8.4461,-8.4539,-8.4666,-8.4662,-8.4787,-8.4811,-8.4859,-8.4941,-8.4911,-8.4989,-8.4986,-8.5065,-8.5067,-8.5191,-8.5209,-8.5218,-8.5217,-8.5222,-8.5221,-8.5251,-8.5239,-8.5209,-8.5208,-8.5206,-8.5205,0,-8.4527,-8.4542,-8.4679,-8.4734,-8.4751,-8.4842,-8.4888,-8.4963,-8.4978,-8.5084,-8.5108,-8.5131,-8.5224,-8.5232,-8.5337,-8.5338,-8.5489,-8.5473,-8.5472,-8.5469,-8.5567,-8.5559,-8.5879,-8.5921,-8.564,-8.5643,-8.5645,0,-8.466,-8.4747,-8.4813,-8.4868,-8.4904,-8.4991,-8.5045,-8.5045,-8.5102,-8.5176,-8.5243,-8.5333,-8.5405,-8.5554,-8.558,-8.5661,-8.5648,-8.5755,-8.566,-8.5663,-8.5652,-8.5648,-8.5658,-8.5773,-8.5776,-8.5779,-8.5781,0,-8.4896,-8.4901,-8.4981,-8.5065,-8.5131,-8.5197,-8.5258,-8.5304,-8.5311,-8.5377,-8.5473,-8.553,-8.5641,-8.5731,-8.5812,-8.5842,-8.5814,-8.5811,-8.5838,-8.5844,-8.584,-8.5846,-8.5524,-8.5803,-8.5801,-8.58,-8.5798,-8.5797,-8.5066,-8.5143,-8.5204,-8.5294,-8.5342,-8.5401,-8.5475,-8.5502,-8.5582,-8.5675,-8.5669,-8.5776,-8.5832,-8.5939,-8.5976,-8.6059,-8.6023,-8.6062,-8.6072,-8.6082,-8.6093,-8.5827,-8.6073,-8.6073,-8.6072,-8.6072,-8.6071,0,-8.5303,-8.5341,-8.5425,-8.5514,-8.5586,-8.5556,-8.5623,-8.5685,-8.578,-8.5837,-8.591,-8.6022,-8.611,-8.6144,-8.6231,-8.6291,-8.6281,-8.6314,-8.631,-8.6318,-8.6119,-8.6088,-8.6321,-8.6321,-8.6321,-8.6321,-8.6321,-8.6321,-8.5434,-8.5565,-8.5577,-8.5731,-8.5767,-8.5874,-8.5915,-8.597,-8.6015,-8.6143,-8.6217,-8.624,-8.6288,-8.6379,-8.6459,-8.6467,-8.6501,-8.6541,-8.6543,-8.6357,-8.6331,-8.6307,-8.6278,-8.6548,-8.6548,-8.6735,-8.6737,-8.6738]}]]